Simultaneous Nadir Overpasses (SNOs) Predictions

Prediction of SNOs between LANDSAT-8 and METOP-B Satellite Orbit:

Table of predicted SNOs for the next 14.0 days since TLE Epoch: 6/3/2023
Index Date (LANDSAT-8) Time (LANDSAT-8) Lat,Lon (LANDSAT-8) SZA (LANDSAT-8 ) Date (METOP-B) Time (METOP-B) Lat,Lon (METOP-B) SZA (METOP-B ) Distance(km) Time Diff (sec)
1 06/04/2023 18:01:06 -81.18, 130.56 119.00 06/04/2023 17:59:57 -81.18, 130.59 119.02 0.52 69
2 06/04/2023 18:50:31 81.21, -61.32 61.08 06/04/2023 18:50:36 81.20, -61.47 61.06 2.73 5
3 06/07/2023 13:35:24 -81.18,-163.07 119.31 06/07/2023 13:34:19 -81.18,-162.96 119.32 2.10 65
4 06/07/2023 14:24:49 81.20, 5.02 60.76 06/07/2023 14:24:58 81.20, 4.95 60.75 1.22 9
5 06/10/2023 09:09:41 -81.19, -96.46 119.54 06/10/2023 09:08:41 -81.18, -96.58 119.58 2.02 60
6 06/10/2023 09:59:06 81.21, 71.61 60.52 06/10/2023 09:59:19 81.21, 71.68 60.54 1.30 13
7 06/13/2023 04:43:57 -81.19, -29.98 119.74 06/13/2023 04:43:01 -81.19, -29.90 119.75 1.54 56
8 06/13/2023 05:33:22 81.21, 138.06 60.32 06/13/2023 05:33:40 81.21, 137.96 60.32 1.89 18
9 06/16/2023 00:18:14 -81.18, 36.36 119.90 06/16/2023 00:17:23 -81.19, 36.33 119.93 0.61 51



Historial Predications of SNOs between LANDSAT-8 and METOP-B
